Location: Heidgraben
(53.7081°N, 9.6576°E)
Time: 08:49:26
(UTC+00:00)

Cosmos 2369 Rocket - Pass Details

Date: 05 July 2020
Orbit: 829 x 852 km, 71.0° (Epoch: 14 August)

Event Time Altitude Azimuth Distance (km) Brightness Sun altitude
Rises 21:51:48 0° 326° (NNW) 3,385 7.2 -10.9°
Reaches altitude 10° 21:54:33 10° 337° (NNW) 2,448 6.2 -11.1°
Maximum altitude 21:59:29 31° 39° (NE) 1,439 3.7 -11.4°
Drops below altitude 10° 22:04:24 10° 101° (E) 2,444 4.3 -11.6°
Enters shadow 22:06:52 - 111° (ESE) 3,280 4.9 -11.7°
